Time,TemperatureF,DewpointF,PressureIn,WindDirection,WindDirectionDegrees,WindSpeedMPH,WindSpeedGustMPH,Humidity,HourlyPrecipIn,Conditions,Clouds,dailyrainin,SoftwareType,DateUTC
2013-04-22 00:01:00,33.0,27.2,30.67,NE,44,0.0,0.0,79,0.00,,,0.00,Wunderground v.1.15,2013-04-22 04:01:00,
2013-04-22 00:03:00,32.9,27.1,30.66,NE,44,0.0,0.0,79,0.00,,,0.00,Wunderground v.1.15,2013-04-22 04:03:00,
2013-04-22 00:09:00,32.8,27.0,30.67,NE,44,0.0,0.0,79,0.00,,,0.00,Wunderground v.1.15,2013-04-22 04:09:00,
2013-04-22 00:10:00,32.8,27.0,30.66,NE,44,0.0,0.0,79,0.00,,,0.00,Wunderground v.1.15,2013-04-22 04:10:00,
2013-04-22 00:15:00,32.8,27.0,30.66,NE,43,0.0,0.0,79,0.00,,,0.00,Wunderground v.1.15,2013-04-22 04:15:00,
2013-04-22 00:21:00,32.7,27.2,30.66,NE,43,0.0,0.0,80,0.00,,,0.00,Wunderground v.1.15,2013-04-22 04:21:00,
2013-04-22 00:26:00,32.6,26.8,30.66,NE,43,0.0,0.0,79,0.00,,,0.00,Wunderground v.1.15,2013-04-22 04:26:00,
2013-04-22 00:32:00,32.5,27.0,30.66,NE,43,0.0,0.0,80,0.00,,,0.00,Wunderground v.1.15,2013-04-22 04:32:00,
2013-04-22 00:38:00,32.3,27.1,30.66,NE,43,0.0,0.0,81,0.00,,,0.00,Wunderground v.1.15,2013-04-22 04:38:00,
2013-04-22 00:43:00,32.2,27.0,30.66,NE,43,0.0,0.0,81,0.00,,,0.00,Wunderground v.1.15,2013-04-22 04:43:00,
2013-04-22 00:48:00,32.1,27.2,30.66,NE,43,0.0,0.0,82,0.00,,,0.00,Wunderground v.1.15,2013-04-22 04:48:00,
2013-04-22 00:51:00,32.1,27.2,30.66,NE,43,0.0,0.0,82,0.00,,,0.00,Wunderground v.1.15,2013-04-22 04:51:00,
2013-04-22 00:56:00,32.2,27.3,30.66,NE,43,0.0,0.0,82,0.00,,,0.00,Wunderground v.1.15,2013-04-22 04:56:00,
2013-04-22 01:01:00,32.3,27.4,30.66,NE,43,0.0,0.0,82,0.00,,,0.00,Wunderground v.1.15,2013-04-22 05:01:00,
2013-04-22 01:06:00,32.5,27.6,30.66,NE,37,0.0,0.0,82,0.00,,,0.00,Wunderground v.1.15,2013-04-22 05:06:00,
2013-04-22 01:12:00,32.5,27.9,30.66,NE,37,0.0,0.0,83,0.00,,,0.00,Wunderground v.1.15,2013-04-22 05:12:00,
2013-04-22 01:18:00,32.4,28.1,30.66,NE,37,0.0,0.0,84,0.00,,,0.00,Wunderground v.1.15,2013-04-22 05:18:00,
2013-04-22 01:23:00,32.4,28.1,30.66,NE,37,0.0,0.0,84,0.00,,,0.00,Wunderground v.1.15,2013-04-22 05:23:00,
2013-04-22 01:28:00,32.3,27.7,30.66,NE,37,0.0,0.0,83,0.00,,,0.00,Wunderground v.1.15,2013-04-22 05:28:00,
2013-04-22 01:33:00,32.3,27.7,30.66,NE,37,0.0,0.0,83,0.00,,,0.00,Wunderground v.1.15,2013-04-22 05:33:00,
2013-04-22 01:39:00,32.3,27.4,30.66,NE,37,0.0,0.0,82,0.00,,,0.00,Wunderground v.1.15,2013-04-22 05:39:00,
2013-04-22 01:45:00,32.2,27.6,30.66,NE,36,0.0,0.0,83,0.00,,,0.00,Wunderground v.1.15,2013-04-22 05:45:00,
2013-04-22 01:50:00,32.0,27.7,30.65,NNE,30,0.0,0.0,84,0.00,,,0.00,Wunderground v.1.15,2013-04-22 05:50:00,
2013-04-22 01:55:00,32.0,27.4,30.65,NNE,32,0.0,0.0,83,0.00,,,0.00,Wunderground v.1.15,2013-04-22 05:55:00,
2013-04-22 02:01:00,32.1,27.5,30.66,NNE,32,0.0,0.0,83,0.00,,,0.00,Wunderground v.1.15,2013-04-22 06:01:00,
2013-04-22 02:07:00,32.2,27.6,30.66,NNE,32,0.0,0.0,83,0.00,,,0.00,Wunderground v.1.15,2013-04-22 06:07:00,
2013-04-22 02:12:00,32.3,27.4,30.65,NNE,27,0.0,0.0,82,0.00,,,0.00,Wunderground v.1.15,2013-04-22 06:12:00,
2013-04-22 02:18:00,32.3,27.4,30.66,NNE,26,0.0,0.0,82,0.00,,,0.00,Wunderground v.1.15,2013-04-22 06:18:00,
2013-04-22 02:23:00,32.4,27.5,30.66,NNE,26,0.0,0.0,82,0.00,,,0.00,Wunderground v.1.15,2013-04-22 06:23:00,
2013-04-22 02:29:00,32.4,27.8,30.67,NNE,26,0.0,0.0,83,0.00,,,0.00,Wunderground v.1.15,2013-04-22 06:29:00,
2013-04-22 02:34:00,32.4,27.8,30.67,NNE,26,0.0,0.0,83,0.00,,,0.00,Wunderground v.1.15,2013-04-22 06:34:00,
2013-04-22 02:39:00,32.4,27.8,30.67,NNE,26,0.0,0.0,83,0.00,,,0.00,Wunderground v.1.15,2013-04-22 06:39:00,
2013-04-22 02:45:00,32.3,27.7,30.66,NNE,26,0.0,0.0,83,0.00,,,0.00,Wunderground v.1.15,2013-04-22 06:45:00,
2013-04-22 02:50:00,32.4,27.8,30.66,NNE,26,0.0,0.0,83,0.00,,,0.00,Wunderground v.1.15,2013-04-22 06:50:00,
2013-04-22 02:56:00,32.4,27.8,30.66,North,5,0.0,0.0,83,0.00,,,0.00,Wunderground v.1.15,2013-04-22 06:56:00,
2013-04-22 03:01:00,32.3,28.0,30.67,North,5,0.0,0.0,84,0.00,,,0.00,Wunderground v.1.15,2013-04-22 07:01:00,
2013-04-22 03:07:00,32.3,28.0,30.67,North,5,0.0,0.0,84,0.00,,,0.00,Wunderground v.1.15,2013-04-22 07:07:00,
2013-04-22 03:13:00,32.3,28.0,30.67,North,5,0.0,0.0,84,0.00,,,0.00,Wunderground v.1.15,2013-04-22 07:13:00,
2013-04-22 03:18:00,32.1,27.8,30.67,North,5,0.0,0.0,84,0.00,,,0.00,Wunderground v.1.15,2013-04-22 07:18:00,
2013-04-22 03:23:00,32.1,27.8,30.67,North,5,0.0,0.0,84,0.00,,,0.00,Wunderground v.1.15,2013-04-22 07:23:00,
2013-04-22 03:29:00,31.9,27.6,30.67,North,5,0.0,0.0,84,0.00,,,0.00,Wunderground v.1.15,2013-04-22 07:29:00,
2013-04-22 03:34:00,31.8,27.8,30.66,North,5,0.0,0.0,85,0.00,,,0.00,Wunderground v.1.15,2013-04-22 07:34:00,
2013-04-22 03:39:00,31.6,27.6,30.67,North,5,0.0,0.0,85,0.00,,,0.00,Wunderground v.1.15,2013-04-22 07:39:00,
2013-04-22 03:45:00,31.4,27.7,30.67,North,5,0.0,0.0,86,0.00,,,0.00,Wunderground v.1.15,2013-04-22 07:45:00,
2013-04-22 03:50:00,31.3,27.9,30.66,North,5,0.0,0.0,87,0.00,,,0.00,Wunderground v.1.15,2013-04-22 07:50:00,
2013-04-22 03:56:00,31.3,28.2,30.67,North,5,0.0,0.0,88,0.00,,,0.00,Wunderground v.1.15,2013-04-22 07:56:00,
2013-04-22 04:01:00,31.3,28.2,30.67,North,5,0.0,0.0,88,0.00,,,0.00,Wunderground v.1.15,2013-04-22 08:01:00,
2013-04-22 04:07:00,31.3,28.2,30.67,North,5,0.0,0.0,88,0.00,,,0.00,Wunderground v.1.15,2013-04-22 08:07:00,
2013-04-22 04:13:00,31.2,28.1,30.67,North,5,0.0,0.0,88,0.00,,,0.00,Wunderground v.1.15,2013-04-22 08:13:00,
2013-04-22 04:18:00,31.3,28.4,30.66,North,5,0.0,0.0,89,0.00,,,0.00,Wunderground v.1.15,2013-04-22 08:18:00,
2013-04-22 04:24:00,31.3,28.7,30.67,East,96,0.0,1.0,90,0.00,,,0.00,Wunderground v.1.15,2013-04-22 08:24:00,
2013-04-22 04:29:00,31.5,28.9,30.67,North,360,0.0,1.0,90,0.00,,,0.00,Wunderground v.1.15,2013-04-22 08:29:00,
2013-04-22 04:35:00,31.8,29.2,30.67,North,9,0.0,2.0,90,0.00,,,0.00,Wunderground v.1.15,2013-04-22 08:35:00,
2013-04-22 04:41:00,32.2,29.9,30.67,NNE,13,0.0,0.0,91,0.00,,,0.00,Wunderground v.1.15,2013-04-22 08:41:00,
2013-04-22 04:46:00,32.6,30.3,30.67,ENE,61,0.0,0.0,91,0.00,,,0.00,Wunderground v.1.15,2013-04-22 08:46:00,
2013-04-22 04:52:00,33.0,30.7,30.67,NE,36,0.0,1.0,91,0.00,,,0.00,Wunderground v.1.15,2013-04-22 08:52:00,
2013-04-22 04:57:00,33.3,30.7,30.67,NNE,32,0.0,1.0,90,0.00,,,0.00,Wunderground v.1.15,2013-04-22 08:57:00,
2013-04-22 05:03:00,33.6,30.7,30.68,ENE,62,0.0,0.0,89,0.00,,,0.00,Wunderground v.1.15,2013-04-22 09:03:00,
2013-04-22 05:09:00,33.9,31.0,30.68,North,351,0.0,1.0,89,0.00,,,0.00,Wunderground v.1.15,2013-04-22 09:09:00,
2013-04-22 05:14:00,34.0,31.1,30.67,North,350,0.0,2.0,89,0.00,,,0.00,Wunderground v.1.15,2013-04-22 09:14:00,
2013-04-22 05:19:00,34.1,31.2,30.67,NNE,27,0.0,2.0,89,0.00,,,0.00,Wunderground v.1.15,2013-04-22 09:19:00,
2013-04-22 05:25:00,34.3,31.4,30.67,NNE,22,0.0,3.0,89,0.00,,,0.00,Wunderground v.1.15,2013-04-22 09:25:00,
2013-04-22 05:30:00,34.5,31.6,30.67,NE,39,1.0,1.0,89,0.00,,,0.00,Wunderground v.1.15,2013-04-22 09:30:00,
2013-04-22 05:36:00,34.7,31.8,30.68,NNE,32,1.0,2.0,89,0.00,,,0.00,Wunderground v.1.15,2013-04-22 09:36:00,
2013-04-22 05:42:00,34.8,31.9,30.67,NE,41,0.0,1.0,89,0.00,,,0.00,Wunderground v.1.15,2013-04-22 09:42:00,
2013-04-22 05:47:00,35.0,32.1,30.68,NNW,346,0.0,1.0,89,0.00,,,0.00,Wunderground v.1.15,2013-04-22 09:47:00,
2013-04-22 05:53:00,35.1,32.2,30.68,NE,44,1.0,3.0,89,0.00,,,0.00,Wunderground v.1.15,2013-04-22 09:53:00,
2013-04-22 05:58:00,35.2,32.0,30.68,North,5,1.0,4.0,88,0.00,,,0.00,Wunderground v.1.15,2013-04-22 09:58:00,
2013-04-22 06:03:00,35.3,32.1,30.68,NNE,21,1.0,1.0,88,0.00,,,0.00,Wunderground v.1.15,2013-04-22 10:03:00,
2013-04-22 06:08:00,35.3,32.1,30.68,ESE,107,1.0,3.0,88,0.00,,,0.00,Wunderground v.1.15,2013-04-22 10:08:00,
2013-04-22 06:14:00,35.4,32.2,30.68,NNE,16,1.0,2.0,88,0.00,,,0.00,Wunderground v.1.15,2013-04-22 10:14:00,
2013-04-22 06:19:00,35.5,32.0,30.68,NNW,342,1.0,2.0,87,0.00,,,0.00,Wunderground v.1.15,2013-04-22 10:19:00,
2013-04-22 06:25:00,35.7,32.2,30.69,NNE,20,1.0,3.0,87,0.00,,,0.00,Wunderground v.1.15,2013-04-22 10:25:00,
2013-04-22 06:30:00,35.9,32.4,30.69,NNE,33,1.0,1.0,87,0.00,,,0.00,Wunderground v.1.15,2013-04-22 10:30:00,
2013-04-22 06:36:00,36.1,32.6,30.68,NNW,342,1.0,2.0,87,0.00,,,0.00,Wunderground v.1.15,2013-04-22 10:36:00,
2013-04-22 06:42:00,36.3,32.5,30.69,NE,47,1.0,1.0,86,0.00,,,0.00,Wunderground v.1.15,2013-04-22 10:42:00,
2013-04-22 06:47:00,36.4,32.6,30.69,ENE,66,0.0,3.0,86,0.00,,,0.00,Wunderground v.1.15,2013-04-22 10:47:00,
2013-04-22 06:52:00,36.7,32.9,30.69,NE,55,0.0,1.0,86,0.00,,,0.00,Wunderground v.1.15,2013-04-22 10:52:00,
2013-04-22 06:58:00,37.0,33.2,30.69,NNE,19,1.0,2.0,86,0.00,,,0.00,Wunderground v.1.15,2013-04-22 10:58:00,
2013-04-22 07:03:00,37.2,33.1,30.69,NNE,15,0.0,2.0,85,0.00,,,0.00,Wunderground v.1.15,2013-04-22 11:03:00,
2013-04-22 07:09:00,37.5,33.4,30.70,North,355,0.0,3.0,85,0.00,,,0.00,Wunderground v.1.15,2013-04-22 11:09:00,
2013-04-22 07:15:00,37.9,33.8,30.70,NNW,348,1.0,3.0,85,0.00,,,0.00,Wunderground v.1.15,2013-04-22 11:15:00,
2013-04-22 07:20:00,38.4,34.0,30.69,ENE,68,1.0,2.0,84,0.00,,,0.00,Wunderground v.1.15,2013-04-22 11:20:00,
2013-04-22 07:26:00,39.0,34.6,30.70,NNE,28,1.0,5.0,84,0.00,,,0.00,Wunderground v.1.15,2013-04-22 11:26:00,
2013-04-22 07:31:00,39.5,34.8,30.69,North,9,1.0,2.0,83,0.00,,,0.00,Wunderground v.1.15,2013-04-22 11:31:00,
2013-04-22 07:37:00,40.4,35.3,30.70,NE,44,1.0,4.0,82,0.00,,,0.00,Wunderground v.1.15,2013-04-22 11:37:00,
2013-04-22 07:43:00,41.4,35.7,30.69,NE,45,2.0,5.0,80,0.00,,,0.00,Wunderground v.1.15,2013-04-22 11:43:00,
2013-04-22 07:48:00,42.1,36.1,30.69,NE,44,2.0,5.0,79,0.00,,,0.00,Wunderground v.1.15,2013-04-22 11:48:00,
2013-04-22 07:54:00,43.2,36.5,30.69,SSE,162,1.0,4.0,77,0.00,,,0.00,Wunderground v.1.15,2013-04-22 11:54:00,
2013-04-22 07:59:00,44.1,36.0,30.69,NE,49,1.0,4.0,73,0.00,,,0.00,Wunderground v.1.15,2013-04-22 11:59:00,
2013-04-22 08:04:00,45.1,34.4,30.69,ENE,78,3.0,8.0,66,0.00,,,0.00,Wunderground v.1.15,2013-04-22 12:04:00,
2013-04-22 08:09:00,45.9,34.0,30.68,NNW,344,4.0,4.0,63,0.00,,,0.00,Wunderground v.1.15,2013-04-22 12:09:00,
2013-04-22 08:15:00,46.5,33.8,30.68,ENE,69,3.0,6.0,61,0.00,,,0.00,Wunderground v.1.15,2013-04-22 12:15:00,
2013-04-22 08:20:00,46.9,32.0,30.68,NE,38,4.0,8.0,56,0.00,,,0.00,Wunderground v.1.15,2013-04-22 12:20:00,
2013-04-22 08:26:00,47.2,32.3,30.68,NE,44,5.0,8.0,56,0.00,,,0.00,Wunderground v.1.15,2013-04-22 12:26:00,
2013-04-22 08:31:00,47.5,31.7,30.68,East,83,5.0,7.0,54,0.00,,,0.00,Wunderground v.1.15,2013-04-22 12:31:00,
2013-04-22 08:36:00,47.8,31.5,30.69,NNE,23,5.0,7.0,53,0.00,,,0.00,Wunderground v.1.15,2013-04-22 12:36:00,
2013-04-22 08:42:00,48.0,31.2,30.68,NE,50,6.0,6.0,52,0.00,,,0.00,Wunderground v.1.15,2013-04-22 12:42:00,
2013-04-22 08:47:00,48.3,31.9,30.68,NE,41,5.0,8.0,53,0.00,,,0.00,Wunderground v.1.15,2013-04-22 12:47:00,
2013-04-22 08:52:00,48.8,31.9,30.68,South,179,5.0,5.0,52,0.00,,,0.00,Wunderground v.1.15,2013-04-22 12:52:00,
2013-04-22 08:58:00,49.1,31.2,30.68,NE,48,5.0,8.0,50,0.00,,,0.00,Wunderground v.1.15,2013-04-22 12:58:00,
2013-04-22 09:03:00,49.6,30.7,30.68,East,80,5.0,8.0,48,0.00,,,0.00,Wunderground v.1.15,2013-04-22 13:03:00,
2013-04-22 09:09:00,49.8,29.8,30.68,ENE,71,4.0,8.0,46,0.00,,,0.00,Wunderground v.1.15,2013-04-22 13:09:00,
2013-04-22 09:14:00,50.3,30.3,30.69,ESE,114,4.0,6.0,46,0.00,,,0.00,Wunderground v.1.15,2013-04-22 13:14:00,
2013-04-22 09:19:00,50.9,29.2,30.70,East,81,4.0,4.0,43,0.00,,,0.00,Wunderground v.1.15,2013-04-22 13:19:00,
2013-04-22 09:25:00,51.0,29.3,30.70,ENE,77,4.0,9.0,43,0.00,,,0.00,Wunderground v.1.15,2013-04-22 13:25:00,
2013-04-22 09:30:00,51.2,29.4,30.71,NE,49,4.0,6.0,43,0.00,,,0.00,Wunderground v.1.15,2013-04-22 13:30:00,
2013-04-22 09:36:00,51.4,29.6,30.72,SE,140,5.0,12.0,43,0.00,,,0.00,Wunderground v.1.15,2013-04-22 13:36:00,
2013-04-22 09:42:00,51.5,29.1,30.71,East,88,5.0,9.0,42,0.00,,,0.00,Wunderground v.1.15,2013-04-22 13:42:00,
2013-04-22 09:47:00,51.5,27.9,30.70,East,92,5.0,9.0,40,0.00,,,0.00,Wunderground v.1.15,2013-04-22 13:47:00,
2013-04-22 09:53:00,51.4,29.1,30.70,ESE,113,5.0,6.0,42,0.00,,,0.00,Wunderground v.1.15,2013-04-22 13:53:00,
2013-04-22 09:58:00,51.4,28.5,30.70,ENE,68,5.0,10.0,41,0.00,,,0.00,Wunderground v.1.15,2013-04-22 13:58:00,
2013-04-22 10:03:00,51.8,30.0,30.70,ESE,106,4.0,5.0,43,0.00,,,0.00,Wunderground v.1.15,2013-04-22 14:03:00,
2013-04-22 10:08:00,52.7,29.6,30.71,NE,52,3.0,5.0,41,0.00,,,0.00,Wunderground v.1.15,2013-04-22 14:08:00,
2013-04-22 10:14:00,52.6,29.5,30.71,East,101,5.0,8.0,41,0.00,,,0.00,Wunderground v.1.15,2013-04-22 14:14:00,
2013-04-22 10:19:00,52.9,30.4,30.70,East,101,4.0,8.0,42,0.00,,,0.00,Wunderground v.1.15,2013-04-22 14:19:00,
2013-04-22 10:25:00,53.4,29.7,30.70,ENE,71,3.0,6.0,40,0.00,,,0.00,Wunderground v.1.15,2013-04-22 14:25:00,
2013-04-22 10:30:00,53.2,29.5,30.71,NE,55,5.0,5.0,40,0.00,,,0.00,Wunderground v.1.15,2013-04-22 14:30:00,
2013-04-22 10:36:00,53.0,31.1,30.71,NE,51,6.0,9.0,43,0.00,,,0.00,Wunderground v.1.15,2013-04-22 14:36:00,
2013-04-22 10:42:00,52.9,31.6,30.70,SE,128,5.0,5.0,44,0.00,,,0.00,Wunderground v.1.15,2013-04-22 14:42:00,
2013-04-22 10:47:00,53.1,31.2,30.71,ENE,62,4.0,9.0,43,0.00,,,0.00,Wunderground v.1.15,2013-04-22 14:47:00,
2013-04-22 10:53:00,52.5,31.2,30.70,ESE,103,6.0,7.0,44,0.00,,,0.00,Wunderground v.1.15,2013-04-22 14:53:00,
2013-04-22 10:59:00,53.2,31.8,30.70,NNE,31,5.0,14.0,44,0.00,,,0.00,Wunderground v.1.15,2013-04-22 14:59:00,
2013-04-22 11:04:00,53.5,31.0,30.70,East,86,4.0,7.0,42,0.00,,,0.00,Wunderground v.1.15,2013-04-22 15:04:00,
2013-04-22 11:10:00,53.0,30.5,30.70,ESE,122,5.0,5.0,42,0.00,,,0.00,Wunderground v.1.15,2013-04-22 15:10:00,
2013-04-22 11:15:00,53.5,31.0,30.70,NE,54,5.0,8.0,42,0.00,,,0.00,Wunderground v.1.15,2013-04-22 15:15:00,
2013-04-22 11:20:00,54.1,32.1,30.69,NE,55,3.0,8.0,43,0.00,,,0.00,Wunderground v.1.15,2013-04-22 15:20:00,
2013-04-22 11:26:00,53.6,30.4,30.68,North,9,5.0,10.0,41,0.00,,,0.00,Wunderground v.1.15,2013-04-22 15:26:00,
2013-04-22 11:32:00,53.7,29.9,30.68,SE,128,5.0,6.0,40,0.00,,,0.00,Wunderground v.1.15,2013-04-22 15:32:00,
2013-04-22 11:37:00,54.1,31.5,30.69,NW,323,4.0,6.0,42,0.00,,,0.00,Wunderground v.1.15,2013-04-22 15:37:00,
2013-04-22 11:42:00,54.5,30.0,30.68,East,82,4.0,7.0,39,0.00,,,0.00,Wunderground v.1.15,2013-04-22 15:42:00,
2013-04-22 11:48:00,54.7,29.6,30.68,ESE,105,5.0,8.0,38,0.00,,,0.00,Wunderground v.1.15,2013-04-22 15:48:00,
2013-04-22 11:53:00,54.6,30.1,30.68,ESE,103,4.0,5.0,39,0.00,,,0.00,Wunderground v.1.15,2013-04-22 15:53:00,
2013-04-22 11:59:00,55.1,29.9,30.68,East,84,3.0,8.0,38,0.00,,,0.00,Wunderground v.1.15,2013-04-22 15:59:00,
2013-04-22 12:05:00,54.7,28.9,30.68,ENE,68,5.0,9.0,37,0.00,,,0.00,Wunderground v.1.15,2013-04-22 16:05:00,
2013-04-22 12:10:00,54.3,29.2,30.68,SE,132,6.0,6.0,38,0.00,,,0.00,Wunderground v.1.15,2013-04-22 16:10:00,
2013-04-22 12:16:00,54.0,28.9,30.67,East,83,6.0,16.0,38,0.00,,,0.00,Wunderground v.1.15,2013-04-22 16:16:00,
2013-04-22 12:21:00,53.5,29.1,30.67,SE,145,5.0,5.0,39,0.00,,,0.00,Wunderground v.1.15,2013-04-22 16:21:00,
2013-04-22 12:27:00,53.3,28.9,30.67,East,92,6.0,13.0,39,0.00,,,0.00,Wunderground v.1.15,2013-04-22 16:27:00,
2013-04-22 12:32:00,53.2,28.2,30.67,ENE,78,7.0,9.0,38,0.00,,,0.00,Wunderground v.1.15,2013-04-22 16:32:00,
2013-04-22 12:37:00,52.8,28.5,30.67,East,92,7.0,16.0,39,0.00,,,0.00,Wunderground v.1.15,2013-04-22 16:37:00,
2013-04-22 12:43:00,53.2,28.2,30.67,East,97,5.0,8.0,38,0.00,,,0.00,Wunderground v.1.15,2013-04-22 16:43:00,
2013-04-22 12:48:00,53.1,28.8,30.67,NE,38,5.0,8.0,39,0.00,,,0.00,Wunderground v.1.15,2013-04-22 16:48:00,
2013-04-22 12:54:00,53.7,28.7,30.67,East,94,5.0,13.0,38,0.00,,,0.00,Wunderground v.1.15,2013-04-22 16:54:00,
2013-04-22 13:00:00,54.1,29.7,30.67,SE,136,4.0,4.0,39,0.00,,,0.00,Wunderground v.1.15,2013-04-22 17:00:00,
2013-04-22 13:06:00,54.5,30.6,30.67,ESE,106,4.0,9.0,40,0.00,,,0.00,Wunderground v.1.15,2013-04-22 17:06:00,
2013-04-22 13:11:00,54.4,32.9,30.67,East,101,5.0,5.0,44,0.00,,,0.00,Wunderground v.1.15,2013-04-22 17:11:00,
2013-04-22 13:17:00,53.6,30.4,30.68,SSE,158,6.0,8.0,41,0.00,,,0.00,Wunderground v.1.15,2013-04-22 17:17:00,
2013-04-22 13:22:00,53.1,30.6,30.67,SE,142,6.0,6.0,42,0.00,,,0.00,Wunderground v.1.15,2013-04-22 17:22:00,
2013-04-22 13:28:00,52.6,29.5,30.66,ENE,74,5.0,10.0,41,0.00,,,0.00,Wunderground v.1.15,2013-04-22 17:28:00,
2013-04-22 13:33:00,52.5,32.3,30.66,ENE,78,6.0,7.0,46,0.00,,,0.00,Wunderground v.1.15,2013-04-22 17:33:00,
2013-04-22 13:39:00,52.5,34.4,30.67,NNE,28,5.0,13.0,50,0.00,,,0.00,Wunderground v.1.15,2013-04-22 17:39:00,
2013-04-22 13:45:00,52.1,34.0,30.67,ENE,63,6.0,14.0,50,0.00,,,0.00,Wunderground v.1.15,2013-04-22 17:45:00,
2013-04-22 13:50:00,51.4,34.3,30.67,East,100,6.0,6.0,52,0.00,,,0.00,Wunderground v.1.15,2013-04-22 17:50:00,
2013-04-22 13:56:00,51.0,35.8,30.67,ESE,117,5.0,9.0,56,0.00,,,0.00,Wunderground v.1.15,2013-04-22 17:56:00,
2013-04-22 14:02:00,50.0,35.8,30.67,ESE,109,6.0,10.0,58,0.00,,,0.00,Wunderground v.1.15,2013-04-22 18:02:00,
2013-04-22 14:07:00,49.7,36.8,30.67,East,83,5.0,10.0,61,0.00,,,0.00,Wunderground v.1.15,2013-04-22 18:07:00,
2013-04-22 14:13:00,49.6,37.5,30.67,East,98,4.0,6.0,63,0.00,,,0.00,Wunderground v.1.15,2013-04-22 18:13:00,
2013-04-22 14:18:00,49.3,37.2,30.67,East,93,5.0,14.0,63,0.00,,,0.00,Wunderground v.1.15,2013-04-22 18:18:00,
2013-04-22 14:23:00,48.9,36.9,30.65,East,82,5.0,15.0,63,0.00,,,0.00,Wunderground v.1.15,2013-04-22 18:23:00,
2013-04-22 14:29:00,48.6,37.4,30.66,SE,140,5.0,15.0,65,0.00,,,0.00,Wunderground v.1.15,2013-04-22 18:29:00,
2013-04-22 14:34:00,48.7,37.5,30.66,NE,39,5.0,7.0,65,0.00,,,0.00,Wunderground v.1.15,2013-04-22 18:34:00,
2013-04-22 14:39:00,48.9,36.0,30.65,ENE,74,6.0,13.0,61,0.00,,,0.00,Wunderground v.1.15,2013-04-22 18:39:00,
2013-04-22 14:45:00,48.7,36.7,30.65,East,92,7.0,12.0,63,0.00,,,0.00,Wunderground v.1.15,2013-04-22 18:45:00,
2013-04-22 14:50:00,48.5,37.3,30.64,ENE,77,6.0,14.0,65,0.00,,,0.00,Wunderground v.1.15,2013-04-22 18:50:00,
2013-04-22 14:56:00,48.1,36.5,30.63,East,82,6.0,14.0,64,0.00,,,0.00,Wunderground v.1.15,2013-04-22 18:56:00,
2013-04-22 15:01:00,47.9,36.7,30.63,NNE,33,6.0,7.0,65,0.00,,,0.00,Wunderground v.1.15,2013-04-22 19:01:00,
2013-04-22 15:06:00,48.3,37.1,30.63,ESE,121,5.0,8.0,65,0.00,,,0.00,Wunderground v.1.15,2013-04-22 19:06:00,
2013-04-22 15:12:00,48.4,36.4,30.63,ENE,74,5.0,15.0,63,0.00,,,0.00,Wunderground v.1.15,2013-04-22 19:12:00,
2013-04-22 15:18:00,48.4,36.4,30.63,SSE,153,5.0,15.0,63,0.00,,,0.00,Wunderground v.1.15,2013-04-22 19:18:00,
2013-04-22 15:24:00,48.4,36.8,30.64,East,90,6.0,14.0,64,0.00,,,0.00,Wunderground v.1.15,2013-04-22 19:24:00,
2013-04-22 15:29:00,48.4,36.8,30.64,South,189,5.0,14.0,64,0.00,,,0.00,Wunderground v.1.15,2013-04-22 19:29:00,
2013-04-22 15:35:00,48.5,36.5,30.63,East,97,6.0,11.0,63,0.00,,,0.00,Wunderground v.1.15,2013-04-22 19:35:00,
2013-04-22 15:41:00,48.7,36.7,30.63,SE,139,6.0,6.0,63,0.00,,,0.00,Wunderground v.1.15,2013-04-22 19:41:00,
2013-04-22 15:46:00,48.9,36.4,30.64,East,82,6.0,9.0,62,0.00,,,0.00,Wunderground v.1.15,2013-04-22 19:46:00,
2013-04-22 15:52:00,48.4,36.0,30.64,East,84,6.0,6.0,62,0.00,,,0.00,Wunderground v.1.15,2013-04-22 19:52:00,
2013-04-22 15:57:00,48.1,36.1,30.64,ENE,74,5.0,7.0,63,0.00,,,0.00,Wunderground v.1.15,2013-04-22 19:57:00,
2013-04-22 16:03:00,47.7,36.1,30.64,ENE,64,5.0,11.0,64,0.00,,,0.00,Wunderground v.1.15,2013-04-22 20:03:00,
2013-04-22 16:09:00,47.3,35.3,30.63,East,94,6.0,11.0,63,0.00,,,0.00,Wunderground v.1.15,2013-04-22 20:09:00,
2013-04-22 16:14:00,47.0,35.4,30.63,ESE,121,6.0,12.0,64,0.00,,,0.00,Wunderground v.1.15,2013-04-22 20:14:00,
2013-04-22 16:20:00,47.2,35.6,30.63,ENE,59,4.0,4.0,64,0.00,,,0.00,Wunderground v.1.15,2013-04-22 20:20:00,
2013-04-22 16:25:00,47.2,34.4,30.63,ESE,117,5.0,9.0,61,0.00,,,0.00,Wunderground v.1.15,2013-04-22 20:25:00,
2013-04-22 16:30:00,46.9,34.1,30.63,NNE,27,5.0,7.0,61,0.00,,,0.00,Wunderground v.1.15,2013-04-22 20:30:00,
2013-04-22 16:36:00,46.7,35.2,30.63,East,89,6.0,9.0,64,0.00,,,0.00,Wunderground v.1.15,2013-04-22 20:36:00,
2013-04-22 16:42:00,46.5,35.7,30.63,SSE,165,5.0,8.0,66,0.00,,,0.00,Wunderground v.1.15,2013-04-22 20:42:00,
2013-04-22 16:47:00,46.5,36.1,30.63,SE,142,3.0,8.0,67,0.00,,,0.00,Wunderground v.1.15,2013-04-22 20:47:00,
2013-04-22 16:53:00,46.4,36.0,30.63,East,81,4.0,10.0,67,0.00,,,0.00,Wunderground v.1.15,2013-04-22 20:53:00,
2013-04-22 16:58:00,46.3,36.3,30.63,ENE,57,4.0,10.0,68,0.00,,,0.00,Wunderground v.1.15,2013-04-22 20:58:00,
2013-04-22 17:03:00,46.2,36.6,30.63,East,92,4.0,7.0,69,0.00,,,0.00,Wunderground v.1.15,2013-04-22 21:03:00,
2013-04-22 17:08:00,46.0,36.4,30.63,ENE,78,4.0,7.0,69,0.00,,,0.00,Wunderground v.1.15,2013-04-22 21:08:00,
2013-04-22 17:14:00,45.9,36.7,30.63,ESE,104,4.0,8.0,70,0.00,,,0.00,Wunderground v.1.15,2013-04-22 21:14:00,
2013-04-22 17:19:00,45.7,35.7,30.63,NE,40,4.0,8.0,68,0.00,,,0.00,Wunderground v.1.15,2013-04-22 21:19:00,
2013-04-22 17:25:00,45.5,34.8,30.63,ENE,73,4.0,9.0,66,0.00,,,0.00,Wunderground v.1.15,2013-04-22 21:25:00,
2013-04-22 17:31:00,45.3,35.0,30.62,NE,54,5.0,7.0,67,0.00,,,0.00,Wunderground v.1.15,2013-04-22 21:31:00,
2013-04-22 17:36:00,45.2,35.3,30.62,ENE,78,5.0,12.0,68,0.00,,,0.00,Wunderground v.1.15,2013-04-22 21:36:00,
2013-04-22 17:41:00,45.1,34.4,30.62,ENE,77,5.0,9.0,66,0.00,,,0.00,Wunderground v.1.15,2013-04-22 21:41:00,
2013-04-22 17:46:00,45.0,35.1,30.62,NNE,30,5.0,9.0,68,0.00,,,0.00,Wunderground v.1.15,2013-04-22 21:46:00,
2013-04-22 17:52:00,44.9,35.0,30.62,NE,50,4.0,4.0,68,0.00,,,0.00,Wunderground v.1.15,2013-04-22 21:52:00,
2013-04-22 17:57:00,44.9,35.3,30.62,East,101,3.0,10.0,69,0.00,,,0.00,Wunderground v.1.15,2013-04-22 21:57:00,
2013-04-22 18:03:00,44.9,35.3,30.62,ESE,107,3.0,6.0,69,0.00,,,0.00,Wunderground v.1.15,2013-04-22 22:03:00,
2013-04-22 18:09:00,44.9,35.0,30.62,NNW,337,3.0,6.0,68,0.00,,,0.00,Wunderground v.1.15,2013-04-22 22:09:00,
2013-04-22 18:14:00,44.9,35.0,30.62,East,86,3.0,3.0,68,0.00,,,0.00,Wunderground v.1.15,2013-04-22 22:14:00,
2013-04-22 18:20:00,44.8,34.9,30.62,WNW,301,2.0,2.0,68,0.00,,,0.00,Wunderground v.1.15,2013-04-22 22:20:00,
2013-04-22 18:25:00,44.6,34.3,30.62,ESE,106,2.0,9.0,67,0.00,,,0.00,Wunderground v.1.15,2013-04-22 22:25:00,
2013-04-22 18:31:00,44.4,33.7,30.61,ENE,77,4.0,4.0,66,0.00,,,0.00,Wunderground v.1.15,2013-04-22 22:31:00,
2013-04-22 18:36:00,44.1,33.5,30.61,North,350,4.0,5.0,66,0.00,,,0.00,Wunderground v.1.15,2013-04-22 22:36:00,
2013-04-22 18:41:00,43.8,33.2,30.60,ENE,67,4.0,8.0,66,0.00,,,0.00,Wunderground v.1.15,2013-04-22 22:41:00,
2013-04-22 18:47:00,43.5,32.9,30.61,NE,54,4.0,8.0,66,0.00,,,0.00,Wunderground v.1.15,2013-04-22 22:47:00,
2013-04-22 18:52:00,43.3,33.1,30.61,NE,45,3.0,4.0,67,0.00,,,0.00,Wunderground v.1.15,2013-04-22 22:52:00,
2013-04-22 18:58:00,43.1,32.9,30.61,NE,53,3.0,4.0,67,0.00,,,0.00,Wunderground v.1.15,2013-04-22 22:58:00,
2013-04-22 19:03:00,42.9,33.1,30.61,ENE,67,3.0,5.0,68,0.00,,,0.00,Wunderground v.1.15,2013-04-22 23:03:00,
2013-04-22 19:08:00,42.8,33.0,30.60,ENE,57,2.0,7.0,68,0.00,,,0.00,Wunderground v.1.15,2013-04-22 23:08:00,
2013-04-22 19:14:00,42.6,32.8,30.60,NE,51,2.0,5.0,68,0.00,,,0.00,Wunderground v.1.15,2013-04-22 23:14:00,
2013-04-22 19:19:00,42.5,32.7,30.60,East,80,3.0,10.0,68,0.00,,,0.00,Wunderground v.1.15,2013-04-22 23:19:00,
2013-04-22 19:25:00,42.3,32.5,30.61,ENE,70,3.0,6.0,68,0.00,,,0.00,Wunderground v.1.15,2013-04-22 23:25:00,
2013-04-22 19:30:00,42.1,32.7,30.61,ESE,115,3.0,3.0,69,0.00,,,0.00,Wunderground v.1.15,2013-04-22 23:30:00,
2013-04-22 19:35:00,41.9,32.5,30.60,ENE,60,3.0,4.0,69,0.00,,,0.00,Wunderground v.1.15,2013-04-22 23:35:00,
2013-04-22 19:41:00,41.6,32.5,30.60,ENE,62,2.0,6.0,70,0.00,,,0.00,Wunderground v.1.15,2013-04-22 23:41:00,
2013-04-22 19:46:00,41.5,32.4,30.61,ENE,76,3.0,6.0,70,0.00,,,0.00,Wunderground v.1.15,2013-04-22 23:46:00,
2013-04-22 19:52:00,41.3,32.6,30.61,NE,56,2.0,7.0,71,0.00,,,0.00,Wunderground v.1.15,2013-04-22 23:52:00,
2013-04-22 19:57:00,41.2,32.9,30.61,East,101,2.0,7.0,72,0.00,,,0.00,Wunderground v.1.15,2013-04-22 23:57:00,
2013-04-22 20:03:00,41.1,32.8,30.61,East,80,2.0,5.0,72,0.00,,,0.00,Wunderground v.1.15,2013-04-23 00:03:00,
2013-04-22 20:09:00,41.0,33.0,30.60,ENE,74,3.0,10.0,73,0.00,,,0.00,Wunderground v.1.15,2013-04-23 00:09:00,
2013-04-22 20:14:00,40.9,32.9,30.60,ENE,64,3.0,3.0,73,0.00,,,0.00,Wunderground v.1.15,2013-04-23 00:14:00,
2013-04-22 20:20:00,40.9,33.2,30.60,ENE,61,1.0,3.0,74,0.00,,,0.00,Wunderground v.1.15,2013-04-23 00:20:00,
2013-04-22 20:26:00,40.8,33.2,30.60,NE,46,2.0,5.0,74,0.00,,,0.00,Wunderground v.1.15,2013-04-23 00:26:00,
2013-04-22 20:31:00,40.7,33.1,30.60,NE,38,2.0,2.0,74,0.00,,,0.00,Wunderground v.1.15,2013-04-23 00:31:00,
2013-04-22 20:37:00,40.6,33.0,30.61,NE,51,2.0,3.0,74,0.00,,,0.00,Wunderground v.1.15,2013-04-23 00:37:00,
2013-04-22 20:42:00,40.6,33.0,30.60,ENE,64,2.0,5.0,74,0.00,,,0.00,Wunderground v.1.15,2013-04-23 00:42:00,
2013-04-22 20:48:00,40.6,33.0,30.61,East,92,3.0,5.0,74,0.00,,,0.00,Wunderground v.1.15,2013-04-23 00:48:00,
2013-04-22 20:53:00,40.5,33.2,30.60,NE,51,3.0,3.0,75,0.00,,,0.00,Wunderground v.1.15,2013-04-23 00:53:00,
2013-04-22 20:59:00,40.5,33.2,30.60,ENE,57,1.0,3.0,75,0.00,,,0.00,Wunderground v.1.15,2013-04-23 00:59:00,
2013-04-22 21:04:00,40.4,33.1,30.60,East,98,1.0,1.0,75,0.00,,,0.00,Wunderground v.1.15,2013-04-23 01:04:00,
2013-04-22 21:09:00,40.3,33.3,30.60,ENE,69,1.0,1.0,76,0.00,,,0.00,Wunderground v.1.15,2013-04-23 01:09:00,
2013-04-22 21:15:00,40.2,32.9,30.60,NE,55,2.0,5.0,75,0.00,,,0.00,Wunderground v.1.15,2013-04-23 01:15:00,
2013-04-22 21:20:00,40.2,33.2,30.60,NE,45,2.0,2.0,76,0.00,,,0.00,Wunderground v.1.15,2013-04-23 01:20:00,
2013-04-22 21:26:00,40.2,33.2,30.60,East,86,2.0,4.0,76,0.00,,,0.00,Wunderground v.1.15,2013-04-23 01:26:00,
2013-04-22 21:32:00,40.2,33.2,30.60,East,94,3.0,3.0,76,0.00,,,0.00,Wunderground v.1.15,2013-04-23 01:32:00,
2013-04-22 21:37:00,40.2,33.2,30.59,North,360,2.0,7.0,76,0.00,,,0.00,Wunderground v.1.15,2013-04-23 01:37:00,
2013-04-22 21:42:00,40.2,33.2,30.59,NNE,32,2.0,8.0,76,0.00,,,0.00,Wunderground v.1.15,2013-04-23 01:42:00,
2013-04-22 21:48:00,40.3,33.3,30.59,NNE,26,3.0,8.0,76,0.00,,,0.00,Wunderground v.1.15,2013-04-23 01:48:00,
2013-04-22 21:53:00,40.4,33.4,30.59,East,87,4.0,7.0,76,0.00,,,0.00,Wunderground v.1.15,2013-04-23 01:53:00,
2013-04-22 21:59:00,40.4,33.4,30.59,ENE,65,3.0,7.0,76,0.00,,,0.00,Wunderground v.1.15,2013-04-23 01:59:00,
2013-04-22 22:04:00,40.4,33.4,30.59,East,82,3.0,3.0,76,0.00,,,0.00,Wunderground v.1.15,2013-04-23 02:04:00,
2013-04-22 22:09:00,40.4,33.4,30.58,NE,56,2.0,5.0,76,0.00,,,0.00,Wunderground v.1.15,2013-04-23 02:09:00,
2013-04-22 22:15:00,40.4,33.4,30.58,ENE,70,2.0,5.0,76,0.00,,,0.00,Wunderground v.1.15,2013-04-23 02:15:00,
2013-04-22 22:21:00,40.4,33.4,30.58,ENE,71,2.0,2.0,76,0.00,,,0.00,Wunderground v.1.15,2013-04-23 02:21:00,
2013-04-22 22:26:00,40.4,33.4,30.58,East,79,2.0,2.0,76,0.00,,,0.00,Wunderground v.1.15,2013-04-23 02:26:00,
2013-04-22 22:32:00,40.3,33.7,30.58,East,80,2.0,3.0,77,0.00,,,0.00,Wunderground v.1.15,2013-04-23 02:32:00,
2013-04-22 22:37:00,40.3,33.7,30.58,ENE,71,1.0,4.0,77,0.00,,,0.00,Wunderground v.1.15,2013-04-23 02:37:00,
2013-04-22 22:42:00,40.2,33.6,30.58,ENE,74,1.0,7.0,77,0.00,,,0.00,Wunderground v.1.15,2013-04-23 02:42:00,
2013-04-22 22:47:00,40.2,33.6,30.58,ENE,66,1.0,7.0,77,0.00,,,0.00,Wunderground v.1.15,2013-04-23 02:47:00,
2013-04-22 22:53:00,40.1,33.5,30.58,ENE,74,1.0,1.0,77,0.00,,,0.00,Wunderground v.1.15,2013-04-23 02:53:00,
2013-04-22 22:59:00,40.1,33.5,30.57,NE,49,1.0,5.0,77,0.00,,,0.00,Wunderground v.1.15,2013-04-23 02:59:00,
2013-04-22 23:04:00,40.1,33.5,30.57,East,83,2.0,3.0,77,0.00,,,0.00,Wunderground v.1.15,2013-04-23 03:04:00,
2013-04-22 23:09:00,40.2,33.6,30.57,East,97,3.0,3.0,77,0.00,,,0.00,Wunderground v.1.15,2013-04-23 03:09:00,
2013-04-22 23:15:00,40.2,33.6,30.57,ENE,71,2.0,5.0,77,0.00,,,0.00,Wunderground v.1.15,2013-04-23 03:15:00,
2013-04-22 23:20:00,40.2,33.6,30.57,NNE,25,2.0,2.0,77,0.00,,,0.00,Wunderground v.1.15,2013-04-23 03:20:00,
2013-04-22 23:26:00,40.2,33.6,30.56,NW,326,1.0,2.0,77,0.00,,,0.00,Wunderground v.1.15,2013-04-23 03:26:00,
2013-04-22 23:31:00,40.2,33.6,30.56,NNE,19,1.0,7.0,77,0.00,,,0.00,Wunderground v.1.15,2013-04-23 03:31:00,
2013-04-22 23:36:00,40.2,33.9,30.56,East,101,1.0,7.0,78,0.00,,,0.00,Wunderground v.1.15,2013-04-23 03:36:00,
2013-04-22 23:42:00,40.2,33.9,30.55,East,83,1.0,3.0,78,0.00,,,0.00,Wunderground v.1.15,2013-04-23 03:42:00,
2013-04-22 23:47:00,40.2,33.9,30.55,NE,39,1.0,3.0,78,0.00,,,0.00,Wunderground v.1.15,2013-04-23 03:47:00,
2013-04-22 23:53:00,40.3,34.0,30.55,NE,51,1.0,5.0,78,0.00,,,0.00,Wunderground v.1.15,2013-04-23 03:53:00,
2013-04-22 23:58:00,40.4,34.1,30.55,East,83,1.0,5.0,78,0.00,,,0.00,Wunderground v.1.15,2013-04-23 03:58:00,